CZ-6A R/B

Satellite information

Favourite Embed

Satellite Type and Status

ROCKET BODYIN ORBIT

Key statistics

Satellite CZ-6A R/B at a glance.

Uptime

825

Days in orbit

Revolutions

≈ 14.3

Per day

Orbit

LEO

Low Earth Orbit

Inclination

86.0

Latest

Satellite identification and parameters

Extended collection of information and parameters for CZ-6A R/B.

Object identification

Identified? True

Debris? False

Object name: CZ-6A R/B

International designator: 2023-139B

Object number (NORAD): 57831

Object ID (CCSDS): 57831

Country: PEOPLES REPUBLIC OF CHINA (PRC)

Current information (Y/N): Y

RCS size: LARGE

Orbital parameters

Period: 100.871 minutes

Inclination: 85.9887 deg

SMA: 7177.997 km

Apoapsis: 810.047 km

Periapsis: 789.677 km

RAAN: 334.7437 deg

Eccentricy: 0.00141891

Argument of periapsis: 130.07 deg

Mean anomaly: 230.1738 deg

Mean motion: 14.27571464 rev/day

Mean motion (dot): 0.00000726 rev/day2

B* drag term: 0.00028715802 1/REarth

Two-line elements (TLE)

Creation date: Dec. 12, 2025, 10:14 a.m.

Reference frame: TEME

Reference center: EARTH

Epoch: Dec. 12, 2025, 5:01 a.m. UTC

TLE line 0: 0 CZ-6A R/B

TLE line 1: 1 57831U 23139B 25346.20955172 .00000726 00000-0 28716-3 0 9995

TLE line 2: 2 57831 85.9887 334.7437 0014189 130.0700 230.1738 14.27571464117516

Live tracking on map

Real-time ground track for satellite CZ-6A R/B.

In-orbit conjunctions

A list of the most updated potential collisions computed for object CZ-6A R/B.

Target Orbit TCA Probability of collision Miss distance Type
FENGYUN 1C DEB SSO 2025-11-01 22:51:38 0.0002591003 637.0 (m) DEBRIS
DMSP 5D-2 F13 DEB SSO 2025-02-05 08:17:28 0.0005729979 224.0 (m) DEBRIS
NOAA 16 DEB SSO 2025-01-29 09:41:14 0.0001356934 996.0 (m) DEBRIS
SL-16 DEB LEO 2024-12-24 15:20:33 0.0002185294 94.0 (m) DEBRIS
RESURS O1-N4 SSO 2024-12-06 20:48:07 0.000177501 77.0 (m) PAYLOAD

Associated space launch

3 Chinese reconnaissance satellites of unknown purposes, officially reported as for "Electromagnetic environment probing" purposes.

CZ-6A R/B was lifted into orbit during the mission ‘Long March 6A | Yaogan 40’, on board a Long March 6A space rocket.

The launch took place on Sept. 10, 2023, 4:30 a.m. from Launch Complex 9A.

For more information about the launch, click the button.

Launch to space Long March 6A | Yaogan 40
Long March 6A | Yaogan 40

Agency: N/A

Status: Launch Successful

Launch date: Sept. 10, 2023, 4:30 a.m. UTC

Rocket: Long March 6A

Launch pad: Launch Complex 9A

Location: Taiyuan Satellite Launch Center, People's Republic of China

...

Latest news about this satellite

There are no fresh news available about this satellite. Check back as we update our databases every day.


Newsletter sign-up

Weekly statistics, charts and insights to help you stay on top of the space industry.